Time,TemperatureF,DewpointF,PressureIn,WindDirection,WindDirectionDegrees,WindSpeedMPH,WindSpeedGustMPH,Humidity,HourlyPrecipIn,Conditions,Clouds,dailyrainin,SoftwareType,DateUTC
2014-04-18 00:23:00,53.0,39.0,30.26,WNW,284,0.0,0.0,59,0.00,,,0.00,,2014-04-18 04:23:00,
2014-04-18 00:54:00,52.0,37.0,30.26,WNW,284,0.0,0.0,56,0.00,,,0.00,,2014-04-18 04:54:00,
2014-04-18 01:22:00,52.0,37.0,30.26,WNW,284,0.0,0.0,57,0.00,,,0.00,,2014-04-18 05:22:00,
2014-04-18 01:52:00,51.0,37.0,30.26,WNW,284,0.0,0.0,59,0.00,,,0.00,,2014-04-18 05:52:00,
2014-04-18 02:22:00,49.0,38.0,30.25,WNW,284,0.0,0.0,66,0.00,,,0.00,,2014-04-18 06:22:00,
2014-04-18 02:52:00,51.0,37.0,30.24,WNW,284,0.0,0.0,58,0.00,,,0.00,,2014-04-18 06:52:00,
2014-04-18 03:22:00,51.0,38.0,30.24,WNW,284,0.0,0.0,62,0.00,,,0.00,,2014-04-18 07:22:00,
2014-04-18 03:52:00,51.0,42.0,30.24,WNW,284,0.0,0.0,71,0.00,,,0.00,,2014-04-18 07:52:00,
2014-04-18 04:22:00,51.0,40.0,30.25,WNW,284,0.0,0.0,65,0.00,,,0.00,,2014-04-18 08:22:00,
2014-04-18 04:52:00,51.0,38.0,30.26,SSW,204,1.0,2.0,61,0.00,,,0.00,,2014-04-18 08:52:00,
2014-04-18 05:22:00,50.0,38.0,30.26,SSW,204,0.0,0.0,64,0.00,,,0.00,,2014-04-18 09:22:00,
2014-04-18 05:54:00,48.0,38.0,30.26,SSW,204,0.0,0.0,69,0.00,,,0.00,,2014-04-18 09:54:00,
2014-04-18 06:23:00,48.0,40.0,30.26,SSW,204,0.0,0.0,74,0.00,,,0.00,,2014-04-18 10:23:00,
2014-04-18 06:53:00,49.0,37.0,30.26,SSW,204,0.0,0.0,64,0.00,,,0.00,,2014-04-18 10:53:00,
2014-04-18 07:22:00,48.0,39.0,30.26,West,267,0.0,0.0,70,0.00,,,0.00,,2014-04-18 11:22:00,
2014-04-18 07:53:00,47.0,39.0,30.27,West,267,0.0,0.0,74,0.00,,,0.00,,2014-04-18 11:53:00,
2014-04-18 08:22:00,48.0,40.0,30.28,West,267,0.0,0.0,73,0.00,,,0.00,,2014-04-18 12:22:00,
2014-04-18 08:52:00,50.0,41.0,30.28,West,267,0.0,0.0,71,0.00,,,0.00,,2014-04-18 12:52:00,
2014-04-18 09:22:00,54.0,44.0,30.29,West,267,0.0,0.0,68,0.00,,,0.00,,2014-04-18 13:22:00,
2014-04-18 09:52:00,56.0,41.0,30.29,SSW,195,2.0,4.0,57,0.00,,,0.00,,2014-04-18 13:52:00,
2014-04-18 10:22:00,54.0,40.0,30.29,South,180,2.0,4.0,58,0.00,,,0.00,,2014-04-18 14:22:00,
2014-04-18 10:51:00,55.0,41.0,30.29,SSW,201,1.0,2.0,60,0.00,,,0.00,,2014-04-18 14:51:00,
2014-04-18 11:21:00,59.0,43.0,30.29,SSW,205,1.0,3.0,55,0.00,,,0.00,,2014-04-18 15:21:00,
2014-04-18 11:52:00,61.0,43.0,30.29,WSW,254,1.0,4.0,52,0.00,,,0.00,,2014-04-18 15:52:00,
2014-04-18 12:22:00,64.0,41.0,30.29,SW,215,2.0,5.0,43,0.00,,,0.00,,2014-04-18 16:22:00,
2014-04-18 12:52:00,66.0,42.0,30.29,NNE,15,1.0,4.0,42,0.00,,,0.00,,2014-04-18 16:52:00,
2014-04-18 13:22:00,67.0,42.0,30.28,South,189,1.0,5.0,40,0.00,,,0.00,,2014-04-18 17:22:00,
2014-04-18 13:51:00,67.0,41.0,30.27,North,349,1.0,4.0,38,0.00,,,0.00,,2014-04-18 17:51:00,
2014-04-18 14:21:00,69.0,43.0,30.27,SSW,209,2.0,8.0,39,0.00,,,0.00,,2014-04-18 18:21:00,
2014-04-18 14:51:00,68.0,43.0,30.27,NE,40,1.0,6.0,40,0.00,,,0.00,,2014-04-18 18:51:00,
2014-04-18 15:21:00,71.0,43.0,30.26,SSE,150,0.0,4.0,36,0.00,,,0.00,,2014-04-18 19:21:00,
2014-04-18 15:52:00,70.0,40.0,30.25,NNE,13,1.0,5.0,34,0.00,,,0.00,,2014-04-18 19:52:00,
2014-04-18 16:22:00,71.0,40.0,30.24,SSW,206,0.0,3.0,33,0.00,,,0.00,,2014-04-18 20:22:00,
2014-04-18 16:51:00,70.0,41.0,30.23,SSW,201,1.0,5.0,35,0.00,,,0.00,,2014-04-18 20:51:00,
2014-04-18 17:22:00,71.0,40.0,30.22,NNW,329,2.0,6.0,32,0.00,,,0.00,,2014-04-18 21:22:00,
2014-04-18 17:54:00,70.0,43.0,30.21,NE,34,0.0,3.0,37,0.00,,,0.00,,2014-04-18 21:54:00,
2014-04-18 18:24:00,70.0,43.0,30.21,North,360,0.0,2.0,37,0.00,,,0.00,,2014-04-18 22:24:00,
2014-04-18 18:53:00,69.0,40.0,30.20,West,273,1.0,3.0,35,0.00,,,0.00,,2014-04-18 22:53:00,
2014-04-18 19:22:00,70.0,42.0,30.19,NW,315,0.0,2.0,36,0.00,,,0.00,,2014-04-18 23:22:00,
2014-04-18 19:52:00,69.0,39.0,30.19,WNW,296,2.0,4.0,34,0.00,,,0.00,,2014-04-18 23:52:00,
2014-04-18 20:22:00,67.0,40.0,30.19,NNE,33,1.0,2.0,37,0.00,,,0.00,,2014-04-19 00:22:00,
2014-04-18 20:52:00,66.0,40.0,30.20,NNE,33,0.0,0.0,39,0.00,,,0.00,,2014-04-19 00:52:00,
2014-04-18 21:22:00,65.0,40.0,30.20,NNE,33,0.0,0.0,40,0.00,,,0.00,,2014-04-19 01:22:00,